Date,TemperatureHighF,TemperatureAvgF,TemperatureLowF,DewpointHighF,DewpointAvgF,DewpointLowF,HumidityHigh,HumidityAvg,HumidityLow,PressureMaxIn,PressureMinIn,WindSpeedMaxMPH,WindSpeedAvgMPH,GustSpeedMaxMPH,PrecipitationSumIn
2013-2-1,26,22,18,17,11,6,84,62,49,30.14,29.62,15,4,0,0.00
2013-2-2,25,19,12,14,10,6,86,68,47,30.22,30.02,8,2,0,0.00
2013-2-3,27,19,11,15,13,8,90,77,60,30.01,29.75,6,0,0,0.02
2013-2-4,25,20,16,16,10,6,88,67,48,29.92,29.75,12,2,0,0.00
2013-2-5,28,23,18,21,16,10,89,77,65,29.96,29.87,4,0,0,0.00
2013-2-6,33,26,19,25,17,2,92,70,41,30.31,29.87,11,2,0,0.02
2013-2-7,29,21,12,15,7,2,76,55,39,30.48,30.30,7,2,0,0.00
2013-2-8,28,25,20,26,20,12,91,83,60,30.34,29.68,13,4,0,0.00
2013-2-9,21,17,10,19,13,3,91,82,71,30.30,29.73,20,9,0,0.00
2013-2-10,33,16,8,13,4,-1,78,61,34,30.47,30.30,13,2,0,0.02
2013-2-11,40,34,23,39,31,10,95,88,55,30.31,29.65,10,2,0,0.20
2013-2-12,40,35,31,32,28,23,95,75,60,29.90,29.65,8,2,0,0.00
2013-2-13,41,32,20,27,23,16,89,70,49,29.88,29.67,7,1,0,0.00
2013-2-14,42,29,17,27,22,14,91,77,49,29.95,29.68,6,1,0,0.03
2013-2-15,48,36,26,31,27,22,87,71,51,29.96,29.87,10,1,0,0.00
2013-2-16,31,27,22,27,19,12,90,74,63,29.94,29.72,11,5,0,0.00
2013-2-17,23,18,11,11,4,1,66,57,42,29.88,29.59,20,8,0,0.00
2013-2-18,29,18,10,11,5,1,78,59,40,30.18,29.88,16,3,0,0.00
2013-2-19,40,32,19,35,24,10,94,73,54,30.17,29.60,9,2,0,0.21
2013-2-20,34,25,20,32,15,8,93,66,50,29.87,29.60,11,4,0,0.01
2013-2-21,25,20,17,14,12,10,78,69,61,30.31,29.86,16,6,0,0.00
2013-2-22,34,26,18,25,19,13,85,75,60,30.39,30.25,11,2,0,0.00
2013-2-23,35,32,30,33,29,25,93,90,81,30.25,29.81,8,3,0,0.03
2013-2-24,36,32,29,32,29,23,94,88,69,29.92,29.71,15,4,0,0.07
2013-2-25,38,32,26,28,26,22,88,78,63,30.22,29.92,10,3,0,0.00
2013-2-26,40,32,24,29,25,21,92,76,60,30.28,29.99,10,2,0,0.00
2013-2-27,41,36,31,38,34,27,94,91,82,29.96,29.49,15,3,0,0.32
2013-2-28,42,36,33,37,34,31,95,92,78,29.58,29.51,5,1,0,0.04